Location: Bacea
(45.9500°N, 22.6667°E)
Time: 15:23:57
(UTC+00:00)

Envisat - Pass Details

Date: 04 February 2022
Orbit: 764 x 765 km, 98.2° (Epoch: 15 May)

Event Time Altitude Azimuth Distance (km) Brightness Sun altitude
Rises 03:42:30 0° 11° (N) 3,243 6.4 -22.1°
Reaches altitude 10° 03:44:50 10° 9° (N) 2,313 5.6 -21.7°
Maximum altitude 03:49:54 70° 287° (WNW) 818 2.9 -20.8°
Drops below altitude 10° 03:54:56 10° 205° (SSW) 2,297 5.3 -19.9°
Sets 03:57:14 0° 203° (SSW) 3,219 6.0 -19.5°
